Location: Hines Observatory
(31.5604°N, 83.5172°W)
Time: 13:11:03
(UTC-05:00)

Daily predictions for brighter satellites

Satellite Brightness Start Highest point End
(mag) Time Altitude Azimuth Time Altitude Azimuth Time Altitude Azimuth
Cosmos 371 Rocket 3.8 18:14:19 10° SSW 18:19:04 65° WNW 18:23:51 10° N
Cosmos 540 Rocket 3.5 18:14:10 10° S 18:19:19 75° ESE 18:24:29 10° NNE
Cosmos 389 Rocket 4.4 18:17:36 10° NNW 18:20:53 35° W 18:24:07 10° SSW
MSX 3.8 18:16:03 10° SSE 18:21:45 77° ENE 18:27:28 10° N
Cosmos 2151 3.0 18:20:44 10° S 18:24:53 63° E 18:29:02 10° NNE
USA 215 4.4 18:20:17 10° E 18:25:09 23° NNE 18:30:01 10° NNW
SMAP 3.5 18:21:21 10° S 18:25:58 68° WSW 18:30:36 10° NNW
Cosmos 1844 Rocket 2.9 18:22:10 10° NNW 18:27:50 82° WSW 18:33:27 10° SSE
Meteor 1-28 Rocket 3.5 18:28:57 10° NNE 18:32:31 44° E 18:36:05 10° S
Meteor 1-11 4.3 18:29:31 10° S 18:35:06 66° E 18:40:47 10° NNE
Lacrosse 5 rocket 2.9 18:32:48 10° N 18:35:12 16° NE 18:37:21 11° ENE
BREEZE-M DEB (TANK) 4.1 18:37:18 10° WNW 18:40:48 65° SW 18:52:19 10° SE
CZ-4 R/B 3.7 18:39:05 10° SSW 18:42:24 27° W 18:45:46 10° NW
Cosmos 1980 4.4 18:37:19 10° SW 18:42:52 55° WNW 18:48:27 10° N
Meteor 2-10 4.2 18:40:55 10° N 18:45:54 50° E 18:51:00 10° SSE
Cosmos 1515 Rocket 4.4 18:42:54 10° NNW 18:47:16 56° W 18:51:36 10° S
Cosmos 1151 Rocket 3.0 18:43:52 10° N 18:48:09 86° W 18:52:27 10° S
Cosmos 1805 Rocket 3.8 18:44:30 10° SSE 18:48:47 50° E 18:53:06 10° NNE
SKYMED 2 4.1 18:48:12 10° N 18:52:29 61° WNW 18:56:45 10° SSW
Cosmos 1125 Rocket 3.5 18:49:56 10° NNW 18:55:08 90° W 19:00:20 10° SSE
Cosmos 2333 Rocket 3.9 18:55:01 10° SW 18:59:59 32° WNW 19:05:00 10° N
Cosmos 304 Rocket 3.8 18:55:26 10° SSW 19:00:14 89° W 19:05:04 10° NNE
SJ-6B 3.4 18:57:24 10° SE 19:01:06 36° ENE 19:04:53 10° N
USA 229 DEB 4.1 18:55:40 10° S 19:02:02 43° ESE 19:07:08 16° NE
USA 229 4.1 18:55:47 10° S 19:02:09 43° ESE 19:07:10 16° NE
Cosmos 2219 Rocket 4.4 19:01:09 10° WSW 19:05:26 22° WNW 19:09:44 10° N
Sich 1 3.2 19:04:06 10° S 19:08:24 53° E 19:12:44 10° NNE
Cosmos 1703 3.2 19:04:45 10° S 19:08:39 89° W 19:12:33 10° N
Cosmos 1538 Rocket 3.9 19:03:45 10° S 19:08:58 71° ESE 19:14:17 10° NNE
Centaur AC-72 4.1 19:04:23 10° WSW 19:09:41 35° S 19:18:06 12° ESE
Cosmos 1184 Rocket 3.1 19:08:02 10° SSE 19:11:14 43° E 19:12:12 33° NE
Cosmos 1626 2.0 19:07:51 10° S 19:11:34 72° E 19:15:18 10° N
NOAA 12 4.0 19:06:56 10° SSE 19:12:07 69° ENE 19:17:20 10° N
Helios 1B rocket 4.3 19:14:20 15° SE 19:14:20 15° SE 19:15:35 10° SE
Cosmos 1633 Rocket 3.1 19:10:07 10° S 19:14:24 54° E 19:18:22 12° NNE
Cosmos 2278 Rocket 2.5 19:13:58 10° NNW 19:19:37 70° WSW 19:25:14 10° S
Iridium 4 Rocket 3.5 19:15:24 10° SSE 19:19:47 39° E 19:21:24 29° NE
Cosmos 1461 3.8 19:18:41 10° SW 19:22:46 45° WNW 19:26:00 15° N
Cosmos 1455 2.6 19:20:08 10° N 19:24:27 40° ESE 19:27:27 10° SSE
Atlas Centaur 2 4.1 19:21:23 10° WSW 19:24:26 16° SSW 19:27:09 10° S
Cosmos 1680 Rocket 4.3 19:20:10 10° SSE 19:24:20 29° ESE 19:24:20 29° ESE
Centaur AC-119 3.1 19:26:02 10° SW 19:28:17 35° SSE 19:29:07 31° SE
OTV 4 0.5 19:27:31 10° WNW 19:30:15 70° WSW 19:30:15 70° WSW
Resurs 01 Rocket 3.1 19:33:53 10° SSE 19:40:43 23° N 19:42:30 10° N
Cosmos 1707 Rocket 3.8 19:38:21 10° NNW 19:42:39 68° W 19:46:57 10° S
ALOS 2.1 19:39:26 10° SSE 19:44:03 68° ENE 19:48:40 10° N
Tiangong 1 3.3 19:41:38 10° SSW 19:42:43 19° SSW 19:42:43 19° SSW
SL-16 R/B 3.3 19:39:44 10° SW 19:45:03 42° WNW 19:50:24 10° N
Cosmos 1627 Rocket 4.5 19:43:15 10° SSE 19:49:17 54° E 19:50:24 48° NE
Cosmos 773 Rocket 4.3 19:48:28 10° SSW 19:53:33 64° WNW 19:56:27 26° N
NOSS 3-1 (C) 4.3 19:50:32 10° S 19:53:52 29° SSE 19:53:52 29° SSE
Cosmos 292 Rocket 3.8 19:51:39 10° S 19:55:49 66° SSE 19:55:49 66° SSE
Milstar 3 3.8 19:51:42 10° W 19:57:51 40° SSW 20:02:22 21° SE
Aureole 1 Rocket 4.0 19:53:50 10° SSW 19:58:35 64° WNW 20:03:16 18° N
Cosmos 2297 4.0 19:55:26 10° NNW 20:01:06 68° WSW 20:06:46 10° S
USA 215 3.1 20:05:31 50° SE 20:07:28 84° NE 20:14:02 10° NW
Lacrosse 5 rocket 2.9 20:10:47 10° NW 20:13:10 32° WNW 20:13:10 32° WNW
Cosmos 2026 Rocket 3.9 20:16:15 10° S 20:22:09 80° SSW 20:22:09 80° SSW
FENGYUN 3A 4.4 20:19:36 10° S 20:24:45 49° W 20:29:57 10° NNW
